Погода Остров Котельный

Погода Остров Котельный : погода сейчас, прогноз погоды и архив. Всё, что Вы хотите узнать о погоде Остров Котельный!

Поиск расширенной информации на нашем сайте:

Другие новости

Новости СМИ2

Главная страница сайта

Новости сайта

02.10.2013

Напоминаем, что на нашем новом сайте вы можете получить высокодетализированные прогнозы погоды по пунктам России, СНГ и мира (включающие важные для авиации метеовеличины, такие как направление и скорость ветра, видимость, явления погоды, количество и форма облачности, нижняя и верхняя граница облачности), а также ознакомиться с разнообразными материалами по авиационной метеорологии и подборкой полезных ссылок на эту тему.

Сайт Метеоцентр.Азия посвящён разработке технологий оптимизации авиаметеорологического обслуживания, включая проектирование и перспективное создание нескольких автоматизированных авиаметеорологических систем:
- система выпуска высокодетальных прогностических карт явлений погоды для нижнего воздушного пространства по России и ближнему зарубежью;
- система верификации прогнозов TAF (выпускаемых синоптиками официальных АМСГ РФ и ближнего зарубежья) и AUTOTAF (выпускаемых сайтом Метеоцентр.Азия) - выявление ошибок, онлайн-сопоставление с фактической погодой METAR, автоматическое внесение коррективов в прогнозы при резком отклонении фактической погоды от прогноза, подсчёт оправдываемости прогнозов по элементам и в целом;
- система обработки, анализа и отображения авиаметеорологической информации для применения провайдерами метеорологической информации.

Рекомендуем: Самая детальная информация Установка рулевой колонки тут.

Погода Остров Котельный - сегодня

Время (UTC), дата Ветер
(°,м/с) 
Видим.   Явления Облачность Т
(°С)
Тd
(°С)
f(%) Тe
(°С)
Pmin
(гПа)
dP
(гПа)
Po
(мм)
O2
(г/м3)
Тmin Tmax R s Состояние
почвы
03 22.05.17 150 (ЮВ) 20000 м    10/10 300 м 
[St]
-2.1 -3.3 91 -5  1016  0.1  761  309           
12 22.05.17 160 (Ю) 20000 м    10/10 300 м 
[Sc]
-4.1 -5.6 89 -8  1017.1  0.1  761  312    -1.5       
15 22.05.17 170 (Ю) 4000 м  дымка  10/10 300 м 
[St]
-4.7 -6 91 -8  1016.9  -0.2  761  313           
18 22.05.17 150 (ЮВ) 4000 м  дымка  10/10 300 м 
[St]
-4.7 -6 91 -7  1016.6  -0.3  761  313           
21 22.05.17 150 (ЮВ) 4000 м  дымка  10/10 300 м 
[St]
-4.6 -5.9 91 -8  1016.5  -0.1  761  313           
00 23.05.17 200 (Ю) 4000 м  дымка  10/10 300 м 
[St]
-3.5 -5.6 85 -8  1016.5  761  311  -4.7      21  неравномерный
сухой снег
100% 
03 23.05.17 210 (ЮЗ) 7{10}  20000 м    10/10 300 м 
[Sc]
-3.3 -5.4 85 -8  1016.1  -0.4  761  311           
06 23.05.17 190 (Ю) 20000 м    10/8 300 м верхняя 
[Sc|Ci fib]
-2.4 -4.6 85 -7  1015.9  -0.2  761  310           
09 23.05.17 210 (ЮЗ) 20000 м    10/8 300 м верхняя 
[Sc|Ci fib]
-3 -4.7 88 -6  1015.4  -0.5  760  310           
12 23.05.17 180 (Ю) 20000 м    10/8 300 м средняя 
[Sc|Ac trans]
-2.9 -4.6 88 -7  1014.6  -0.8  760  310    -2.4       
15 23.05.17 180 (Ю) 20000 м    10/10 300 м 
[Sc]
-4.5 -6.8 84 -9  1014.2  -0.4  759  312           
18 23.05.17 130 (ЮВ) 9-10{12}  20000 м  позёмок  10/10 300 м 
[Sc]
-5.3 -7.1 87 -11  1012.9  -1.3  758  312           
21 23.05.17 140 (ЮВ) 9-11{12}  20000 м  позёмок  9/6 300 м средняя 
[Sc|Ac trans]
-5.4 -7.6 84 -11  1012.3  -0.6  758  312           
00 24.05.17 200 (Ю) 9-11{12}  20000 м  позёмок  10/10 300 м 
[Sc]
-4.6 -6.6 86 -10  1011.7  -0.6  757  311  -5.4      21  неравномерный
сухой снег
100% 
03 24.05.17 180 (Ю) 7{11}  20000 м    10/10 300 м 
[Sc]
-4.2 -6.5 84 -9  1010.7  -1  757  310           
06 24.05.17 170 (Ю) 6{10}  20000 м    10/10 300 м 
[Sc]
-3.6 -5.7 85 -8  1009.8  -0.9  756  309           
09 24.05.17 170 (Ю) 20000 м    10/10 300 м 
[St]
-2.8 -4.4 89 -7  1009.2  -0.6  755  308           
12 24.05.17 160 (Ю) 4000 м  слаб. снег  10/10 300 м 
[Sc]
-3.2 -4.6 90 -7  1008.4  -0.8  755  308    -2.8  0.0     
15 24.05.17 160 (Ю) 20000 м  {снег}  10/10 300 м 
[Sc]
-4.4 -5.6 91 -9  1007.7  -0.7  754  310           
18 24.05.17 130 (ЮВ) 4000 м  дымка{снег}  10/10 300 м 
[St]
-4.3 -5.5 91 -7  1007.2  -0.5  754  309           
21 24.05.17 140 (ЮВ) 4000 м  дымка  10/10 300 м 
[St]
-3.4 -4.5 92 -8  1006.3  -0.9  753  308           
00 25.05.17 140 (ЮВ) 8-10{11}  20000 м  позёмок  10/4 300 м средняя 
[Sc|Ac As]
-3.2 -4.6 90 -8  1006.3  753  308  -4.4    0.0  21  неравномерный
сухой снег
100% 
03 25.05.17 130 (ЮВ) 6{10}  20000 м    10/3 300 м средняя 
[Sc|Ac trans]
-3 -5 86 -7  1006.1  -0.2  753  307           
06 25.05.17 140 (ЮВ) 6{10}  20000 м    10/1 300 м средняя 
[Sc|Ac trans]
-1.9 -4 86 -6  1006.6  0.5  754  306           
09 25.05.17 150 (ЮВ) 10-12{14}  20000 м  позёмок  10/10 300 м 
[Sc]
-1.3 -2.7 90 -6  1006.5  -0.1  753  305           
Время (UTC), дата Ветер
(°,м/с) 
Видим.   Явления Облачность Т
(°С)
Тd
(°С)
f(%) Тe
(°С)
Pmin
(гПа)
dP
(гПа)
Po
(мм)
O2
(г/м3)
Тmin Tmax R s Состояние
почвы

Для получения пояснительной информации подведите курсор к названию столбца.

ПОГОДА Остров Котельный - архив

Всё, что Вы хотите узнать о погоде Остров Котельный - удобно и подробно!

Выберите нужную дату (начиная с 1 января 2015* года) и нажмите кнопку "Найти".
Будут отображены архивные сводки погоды по пункту Остров Котельный, начиная с указанной даты.


Отображать данные в формате CSV (для использования в таблицах Excel)


Внимание! Наш архив погоды предназначен исключительно для личного некоммерческого использования в познавательных целях. Если Вам необходимы официальные справки о состоянии погоды (для производственных, юридических, коммерческих и т.п. целей), обращайтесь в органы Росгидромета.

*Примечание: данная дата относится к архиву по метеостанциям СССР (Россия, СНГ, Балтия).
Архив по метеостанциям Зарубежной Европы и Азии (кроме Китая) хранится 10 дней, по другим регионам земного шара (Китай, Африка, Америка, Австралия, Океания) - 1 день.

Остров Котельный - район местоположения метеостанции


Название, широта, долгота, высота метеостанции:
Остров Котельный 76°ш. 137.9°д. 8 м над ур. моря [Российская Федерация]

Дополнительная информация

В oтличие oт бoльшинства пoгoдных сайтoв мы публикуем пoдрoбную метеoинфoрмацию в детальнoм прoфессиoнальнoм фoрмате.

Характеристики температуры и влажнoсти вoздуха измеряются на высoте 2 м в тени вдали oт зданий и деревьев.
Скoрoсть ветра измеряется на высoте 10 м (на урoвне рoста челoвека скoрoсть ветра ниже в 1.5-2 раза). Если метеoстанция нахoдится в гoрoде или в лесу, тo скoрoсть ветра занижена на 2-4 м/с пo сравнению с oткрытым местoм. Скoрoсть ветра над акватoриями крупных рек и oзёр, а также на вершинах хoлмoв на 2-5 м/с выше, чем в oбычных услoвиях.
Атмoсфернoе давление в разных тoчках местнoсти мoжет значительнo oтличаться oт давления на метеoстанции, в зависимoсти oт услoвий рельефа (при пoдъёме на 10 м давление пoнижается примернo на 1 мм рт.ст.).